TimeCDT,TemperatureF,Dew PointF,Humidity,Sea Level PressureIn,VisibilityMPH,Wind Direction,Wind SpeedMPH,Gust SpeedMPH,PrecipitationIn,Events,Conditions,WindDirDegrees,DateUTC
12:54 AM,61.0,55.9,83,30.15,10.0,Calm,Calm,-,N/A,,Clear,0,2013-08-18 05:54:00
1:54 AM,60.1,55.0,83,30.15,10.0,SSW,4.6,-,N/A,,Clear,200,2013-08-18 06:54:00
2:54 AM,57.0,53.1,87,30.15,10.0,Calm,Calm,-,N/A,,Clear,0,2013-08-18 07:54:00
3:54 AM,55.0,52.0,89,30.16,10.0,Calm,Calm,-,N/A,,Clear,0,2013-08-18 08:54:00
4:54 AM,52.0,48.9,89,30.17,10.0,Calm,Calm,-,N/A,,Clear,0,2013-08-18 09:54:00
5:04 AM,51.8,50.0,94,30.17,1.8,Calm,Calm,-,N/A,,Clear,0,2013-08-18 10:04:00
5:16 AM,53.6,50.0,88,30.18,4.0,Calm,Calm,-,N/A,,Clear,0,2013-08-18 10:16:00
5:54 AM,52.0,48.9,89,30.18,8.0,Calm,Calm,-,N/A,,Clear,0,2013-08-18 10:54:00
5:57 AM,51.8,48.2,88,30.19,0.8,Calm,Calm,-,N/A,,Clear,0,2013-08-18 10:57:00
6:05 AM,51.8,50.0,94,30.19,0.2,Calm,Calm,-,N/A,Fog,Fog,0,2013-08-18 11:05:00
6:12 AM,51.8,48.2,88,30.19,1.5,Calm,Calm,-,N/A,,Clear,0,2013-08-18 11:12:00
6:19 AM,51.8,50.0,94,30.19,8.0,Calm,Calm,-,N/A,,Clear,0,2013-08-18 11:19:00
6:54 AM,55.0,51.1,86,30.19,10.0,Calm,Calm,-,N/A,,Clear,0,2013-08-18 11:54:00
7:54 AM,63.0,55.0,75,30.19,10.0,Calm,Calm,-,N/A,,Clear,0,2013-08-18 12:54:00
8:54 AM,70.0,57.0,63,30.18,10.0,Calm,Calm,-,N/A,,Clear,0,2013-08-18 13:54:00
9:54 AM,73.9,57.0,55,30.18,10.0,West,3.5,-,N/A,,Clear,260,2013-08-18 14:54:00
10:54 AM,75.9,55.0,48,30.17,10.0,West,8.1,-,N/A,,Clear,260,2013-08-18 15:54:00
11:54 AM,77.0,55.0,47,30.15,10.0,SW,8.1,-,N/A,,Partly Cloudy,230,2013-08-18 16:54:00
12:54 PM,80.1,53.1,39,30.13,10.0,WSW,5.8,-,N/A,,Partly Cloudy,240,2013-08-18 17:54:00
1:54 PM,80.1,54.0,40,30.11,10.0,SW,8.1,-,N/A,,Scattered Clouds,230,2013-08-18 18:54:00
2:54 PM,82.0,55.0,39,30.10,10.0,South,10.4,-,N/A,,Scattered Clouds,190,2013-08-18 19:54:00
3:54 PM,81.0,55.0,41,30.09,10.0,South,11.5,-,N/A,,Mostly Cloudy,180,2013-08-18 20:54:00
4:54 PM,81.0,55.0,41,30.08,10.0,SSW,11.5,-,N/A,,Scattered Clouds,200,2013-08-18 21:54:00
5:54 PM,79.0,55.0,44,30.07,10.0,South,11.5,-,N/A,,Clear,190,2013-08-18 22:54:00
6:54 PM,75.9,57.0,52,30.06,10.0,South,5.8,-,N/A,,Clear,180,2013-08-18 23:54:00
7:54 PM,70.0,57.0,63,30.06,10.0,South,4.6,-,N/A,,Clear,180,2013-08-19 00:54:00
8:54 PM,66.9,57.0,70,30.05,10.0,South,4.6,-,N/A,,Clear,170,2013-08-19 01:54:00
9:54 PM,66.0,57.0,73,30.04,10.0,South,5.8,-,N/A,,Clear,180,2013-08-19 02:54:00
10:54 PM,66.9,57.0,70,30.04,10.0,SSW,6.9,-,N/A,,Clear,200,2013-08-19 03:54:00
11:54 PM,64.9,55.9,73,30.04,10.0,SSW,4.6,-,N/A,,Clear,200,2013-08-19 04:54:00